Wind_Speed
17 18 19 21 22 22 23 23 24 24 22 21 23 24 24 25 25 24 25 24 18 19 26 29 31 35 36 38 39 38 39 38 35 36 37 35 34 33 34 34 34 34 33 31 29 27 26 26 28 30 26 20 16 13 9 7 7 11 21 28 22 20 24 20 11 8 11 19 27 27 23 20 16 11 9 9 9 9 9 7 7 7 6 4 2
17 18 20 22 22 22 23 24 24 23 22 23 24 25 26 27 26 24 25 24 18 19 25 29 32 35 37 38 39 39 39 38 35 35 37 37 35 34 34 34 33 33 33 31 30 28 26 25 26 29 28 26 24 18 12 8 11 16 22 25 21 18 22 23 18 12 12 17 25 27 23 20 16 12 10 9 8 9 9 8 8 8 7 6 4
17 18 21 21 22 23 24 24 24 23 24 25 25 26 26 27 27 26 25 24 20 19 24 29 32 35 37 38 40 40 40 37 35 35 36 36 35 33 33 34 32 31 31 31 30 29 28 26 26 26 27 28 29 24 17 12 13 17 22 24 21 17 22 26 24 18 15 17 23 27 25 21 17 12 10 9 7 7 7 6 6 8 8 7 6
17 19 21 21 22 23 24 24 24 23 24 25 26 27 28 28 27 26 25 25 23 21 22 28 32 36 37 38 40 41 40 38 36 35 35 34 33 32 32 33 32 30 30 30 30 29 28 26 26 28 28 30 31 27 21 16 14 18 23 24 22 20 23 27 27 25 20 17 20 25 25 22 17 13 12 11 9 7 6 5 6 8 8 8 8
18 19 20 21 23 23 24 25 24 24 24 25 26 28 29 29 28 27 25 25 26 23 22 27 32 35 35 36 39 41 40 40 39 36 33 32 32 32 33 32 31 31 31 31 30 30 28 27 27 29 31 31 31 28 24 19 16 19 23 24 22 22 24 27 28 29 26 21 19 21 22 20 16 13 14 15 12 10 9 7 7 8 10 10 10
18 19 20 22 23 23 23 24 24 23 24 25 27 28 29 29 28 28 26 25 26 26 24 25 30 33 33 35 39 41 41 41 40 36 33 31 31 33 33 32 31 30 31 32 32 31 30 29 29 30 30 30 28 28 25 20 18 20 22 23 21 23 26 27 27 28 27 23 20 20 20 19 16 15 15 15 14 12 11 9 9 9 10 11 11
17 18 20 22 22 22 23 24 23 23 24 26 28 28 29 29 28 28 27 26 26 27 26 25 27 30 33 35 39 41 42 43 41 37 33 31 31 32 32 32 31 30 31 33 34 32 30 31 31 31 30 28 26 26 24 21 19 20 21 22 21 23 26 27 26 26 24 21 19 19 19 18 16 15 15 15 13 11 10 9 8 6 4 6 9
16 18 19 21 22 22 23 24 23 23 24 26 27 28 27 28 28 28 28 26 25 27 28 26 26 28 31 36 40 41 43 44 42 38 34 31 31 31 31 31 32 31 31 32 34 34 32 32 32 32 31 27 23 23 22 20 21 21 21 23 23 23 24 23 23 23 22 20 18 18 17 16 15 13 11 13 13 11 10 9 7 6 4 2 5
16 17 19 20 21 22 23 24 24 24 26 27 27 27 27 28 28 28 28 27 25 26 28 28 28 27 29 34 39 41 43 42 39 37 35 32 31 30 30 30 30 31 31 32 34 35 34 34 34 35 33 27 20 19 21 21 21 22 22 23 24 23 21 20 20 21 20 18 17 16 14 13 13 11 8 9 8 6 4 5 6 7 7 6 3
16 17 18 19 20 21 22 23 24 25 27 28 27 27 27 27 28 27 27 27 26 26 27 28 29 28 28 32 38 41 42 40 38 36 34 31 30 30 29 29 29 30 31 31 33 34 35 35 36 38 37 29 21 18 22 22 20 20 21 22 21 20 19 17 17 18 18 16 16 16 13 12 13 11 6 4 4 5 6 7 9 11 11 10 7
16 17 18 18 19 21 22 23 24 25 26 27 27 27 27 27 27 26 27 27 26 26 28 29 30 29 28 29 34 39 41 39 37 36 33 31 30 29 29 29 29 29 30 30 30 33 35 36 37 39 39 33 24 19 20 22 20 18 19 20 19 16 15 15 14 14 15 15 15 16 16 14 14 9 4 5 7 7 7 8 11 12 9 8 6
16 17 17 17 18 21 22 23 24 25 25 26 26 26 27 27 26 26 27 26 26 27 28 29 30 30 29 28 30 36 40 38 36 34 32 31 30 29 28 29 29 29 29 30 31 32 34 37 37 38 40 36 28 21 19 19 19 19 17 15 13 11 11 12 12 12 13 15 15 16 16 14 11 8 7 8 9 9 8 8 10 9 6 5 6
15 17 18 18 19 21 23 24 25 25 25 26 26 26 26 27 26 26 26 26 27 28 29 30 30 30 30 30 30 34 39 38 35 34 32 31 30 30 29 28 29 30 30 30 32 32 34 37 38 38 38 37 30 24 21 19 19 19 18 16 12 9 8 10 12 13 14 16 17 15 14 13 12 10 10 9 8 9 9 9 8 7 7 9 8
16 17 19 20 20 21 23 24 25 25 25 26 26 26 26 26 26 25 26 27 28 28 29 30 30 30 29 30 31 34 39 38 36 34 34 32 30 30 29 28 29 31 32 31 32 33 34 36 38 37 36 35 32 27 23 21 20 21 22 23 20 15 10 9 11 13 13 14 15 14 13 13 12 11 10 7 8 8 8 8 7 9 12 14 12
16 16 18 20 21 21 23 25 25 24 25 26 26 26 26 26 25 25 26 27 27 28 28 29 30 29 29 31 32 34 38 39 37 35 34 33 31 30 30 29 29 31 33 33 32 33 34 36 37 37 35 33 31 28 26 23 21 21 21 23 23 22 20 16 12 13 13 12 13 14 14 12 11 11 10 7 6 8 8 8 8 10 13 14 13
15 15 18 20 21 21 23 25 25 24 25 25 26 27 26 25 24 24 25 27 27 28 28 28 29 29 30 31 33 34 37 39 38 35 34 33 33 31 30 29 29 30 34 36 35 33 34 35 36 36 35 32 29 26 26 25 23 23 22 20 20 21 22 22 19 17 16 14 15 15 14 12 10 10 9 7 7 8 9 8 7 9 11 11 11
15 16 19 20 20 20 22 25 25 24 25 25 25 26 25 24 23 23 24 26 26 26 26 27 28 30 31 32 32 34 37 40 39 36 34 33 33 32 31 30 28 29 32 35 37 35 32 32 34 35 34 33 29 25 24 24 25 24 23 21 19 18 18 18 18 18 18 17 16 15 14 12 10 9 10 10 9 7 7 7 4 8 11 9 9
15 17 20 20 19 20 22 25 25 24 24 24 23 23 23 23 22 21 23 25 25 24 25 27 28 31 32 32 32 33 36 39 39 38 35 33 32 32 31 30 29 29 30 33 36 36 33 32 33 34 34 33 29 26 24 24 25 24 23 21 20 18 16 14 13 13 14 15 15 15 14 12 11 12 12 12 12 11 10 9 3 7 12 11 8
15 17 19 19 19 20 21 25 27 26 25 24 23 23 23 22 21 21 22 25 25 25 26 28 29 31 32 33 33 34 35 38 39 38 36 33 32 32 31 30 29 29 29 31 34 36 36 35 34 34 34 32 30 28 26 26 27 26 24 22 22 20 16 13 10 9 9 11 12 13 14 12 11 12 12 13 14 15 14 11 5 8 13 11 7
15 17 17 18 19 20 21 24 27 28 28 27 25 25 24 22 22 22 23 25 26 26 27 28 30 31 32 34 35 35 35 37 39 38 37 34 32 31 31 30 27 26 28 30 32 34 36 36 35 34 34 33 32 29 28 29 29 28 26 24 22 19 16 13 11 8 7 8 10 12 13 11 10 11 12 13 14 15 14 11 8 9 12 10 9
14 16 17 17 19 20 20 23 26 27 28 29 28 27 26 25 24 23 24 26 27 28 28 28 29 31 32 33 35 36 36 37 39 39 37 34 32 31 31 29 25 24 27 30 30 32 34 34 34 33 33 33 32 31 30 29 30 30 29 25 21 18 16 13 10 8 7 8 10 10 10 10 10 11 12 13 13 12 11 11 10 10 10 10 10
13 15 17 17 18 19 19 21 23 25 26 28 29 28 27 26 26 25 26 28 28 28 28 28 29 31 32 34 34 35 37 39 40 40 37 34 32 32 31 28 25 24 27 30 30 30 31 32 32 32 33 34 33 32 31 30 31 32 30 26 22 19 18 16 12 8 6 6 9 10 10 10 11 12 13 13 12 11 11 11 10 10 11 10 10
13 14 16 18 18 18 19 19 21 23 24 26 28 28 27 27 27 28 28 29 29 28 28 29 30 31 33 34 35 35 36 39 41 40 38 35 33 31 30 29 28 27 28 28 28 27 28 30 32 33 33 34 34 34 33 32 33 33 32 30 26 22 21 22 21 17 13 9 8 9 11 12 12 11 12 11 11 12 12 12 10 10 11 11 11
13 13 15 17 17 17 18 18 20 22 23 24 26 28 27 27 28 29 30 30 29 28 28 28 29 30 31 32 34 34 35 37 40 40 38 35 33 32 30 29 29 28 27 27 27 26 26 28 32 34 34 35 35 35 35 35 36 35 34 33 31 28 27 27 28 27 25 21 16 11 11 12 12 11 10 11 11 11 11 11 10 9 9 10 10
12 13 15 17 17 17 17 17 19 20 21 22 24 26 27 27 27 28 30 30 29 28 28 27 28 29 29 29 30 31 32 35 39 40 38 35 34 33 32 30 29 29 28 27 27 27 26 26 30 33 34 34 35 36 36 37 38 37 36 35 34 33 32 30 29 29 28 25 22 17 10 7 9 10 10 10 10 10 10 9 8 7 7 7 8
13 14 16 16 17 17 17 17 18 18 19 20 22 24 27 27 27 27 28 30 29 28 27 27 28 28 29 29 28 29 31 33 36 39 38 36 34 34 33 32 31 30 29 28 28 29 29 28 29 32 34 36 37 38 39 38 38 37 38 38 37 35 34 32 31 30 27 24 21 18 13 6 4 8 9 9 8 8 8 8 7 6 7 8 9
13 14 15 16 17 17 17 17 17 17 17 18 20 22 25 26 27 26 27 28 28 28 28 28 28 29 29 29 29 30 32 33 34 37 39 37 35 34 34 34 34 33 32 30 30 33 34 33 33 33 33 35 37 39 39 39 38 38 39 39 39 37 35 33 31 29 27 24 21 20 15 7 2 3 4 6 6 6 5 4 5 5 6 8 11
13 13 13 13 16 18 17 17 16 16 16 17 18 20 23 25 26 25 25 25 27 27 27 27 27 27 28 28 29 30 32 32 32 33 36 36 35 34 34 34 34 34 33 30 30 34 37 39 39 37 35 36 38 40 42 41 40 39 39 38 38 38 37 35 32 30 28 26 24 23 20 15 9 4 1 1 3 3 2 0 1 3 2 7 10
13 13 12 13 17 18 17 16 15 15 15 16 17 19 21 23 25 24 23 23 24 25 25 24 24 24 25 26 26 27 28 27 26 26 29 34 35 34 34 32 31 33 34 34 35 39 43 45 45 43 41 41 42 43 43 42 41 41 40 39 38 39 39 38 35 33 31 29 27 25 24 21 18 13 8 8 10 7 1 2 2 3 2 5 10
14 14 14 15 17 18 16 15 15 14 14 14 16 18 19 21 24 23 22 22 22 23 23 22 21 22 23 24 24 24 23 23 23 23 27 32 35 34 33 33 33 33 35 38 41 44 44 43 42 40 39 39 39 38 37 37 38 39 40 40 39 38 38 37 36 34 32 31 29 27 25 24 22 19 16 15 16 14 7 1 2 4 5 6 11
15 15 16 17 18 18 17 15 14 13 12 12 13 16 18 19 22 22 21 20 20 21 21 20 20 20 21 21 21 21 21 21 23 25 26 30 35 36 36 36 37 37 38 41 44 43 39 37 36 35 35 35 36 35 34 34 33 34 37 39 38 38 37 35 34 34 32 31 30 28 27 26 25 23 22 20 19 19 14 5 1 6 8 8 11
17 17 17 18 18 18 17 16 15 13 12 10 11 13 15 17 19 20 20 19 19 19 19 19 19 20 20 20 20 20 20 21 22 24 26 28 31 35 37 38 39 39 40 44 43 39 35 34 34 33 33 33 33 33 34 33 32 33 36 37 36 36 35 32 32 33 32 30 31 30 29 28 26 24 24 23 22 22 21 14 5 4 10 10 12
19 19 19 19 19 18 18 18 16 15 13 12 11 11 12 15 16 16 17 18 19 19 18 17 18 19 19 19 19 19 19 20 21 23 24 26 28 31 35 39 40 40 42 44 40 35 34 34 33 32 32 31 31 31 32 32 32 32 34 35 34 34 33 31 31 33 32 30 30 30 29 28 26 25 25 25 24 23 24 22 16 5 4 8 12
19 19 19 19 19 18 18 18 17 16 15 15 15 14 13 15 16 16 17 18 18 18 18 17 17 17 18 18 19 18 18 20 21 22 23 24 26 28 32 36 39 41 42 41 37 34 33 33 32 31 31 30 30 30 31 31 31 31 31 32 33 33 33 33 34 34 33 31 31 30 28 27 27 27 26 26 26 25 25 25 23 16 8 1 5
20 19 18 18 18 17 17 17 16 16 16 16 16 16 16 17 18 18 19 19 18 17 17 17 16 16 16 17 17 18 18 19 21 22 23 24 25 28 32 36 38 39 39 38 35 33 32 32 31 31 31 30 30 30 29 30 30 30 30 31 32 34 35 36 35 35 34 33 32 31 29 27 27 27 26 26 26 26 25 25 24 21 15 9 2
20 19 18 17 18 18 17 17 16 16 15 16 16 15 15 17 18 18 18 18 18 17 16 16 15 14 15 16 16 17 18 19 21 23 25 25 26 29 34 35 34 33 33 33 32 32 31 31 30 30 31 31 31 31 30 30 30 30 30 30 31 32 34 35 35 34 34 33 32 32 31 30 28 27 26 26 25 25 24 23 23 21 18 13 4
21 18 17 18 19 19 18 17 17 16 16 16 16 15 15 16 16 16 16 17 16 15 15 14 13 14 14 15 14 15 17 18 20 23 25 26 28 30 31 31 29 29 29 29 29 30 31 31 30 31 31 31 32 32 32 31 31 31 31 31 30 30 32 34 34 34 33 33 32 32 32 30 29 27 26 26 26 25 24 24 23 21 20 16 8
19 17 17 20 21 20 19 18 18 17 17 17 17 16 16 16 16 15 16 16 16 15 14 14 14 14 14 13 13 13 15 17 19 22 24 25 27 28 28 27 27 28 27 27 27 29 30 31 31 32 32 32 32 33 33 33 33 33 33 33 32 32 33 34 35 34 33 32 32 31 30 30 29 28 26 26 26 25 24 24 24 22 21 19 13
19 18 20 22 22 20 19 19 19 18 18 17 17 17 17 17 16 16 16 16 16 15 14 14 14 14 13 12 11 13 15 18 19 20 21 23 24 25 25 25 26 26 26 26 26 28 29 30 31 32 33 33 34 34 34 34 34 34 34 34 34 34 34 35 35 35 34 33 32 31 30 30 29 28 26 25 24 23 23 23 23 22 21 20 17
21 20 21 21 20 19 19 19 19 19 18 17 17 17 17 16 16 16 15 15 16 15 14 14 13 13 12 10 10 12 16 18 17 17 18 19 20 21 22 23 23 24 24 24 24 25 26 28 29 31 33 34 34 34 34 33 34 34 34 35 35 34 33 33 33 33 33 32 32 31 30 30 29 28 27 26 23 22 22 23 22 21 20 20 18
23 22 22 21 20 20 20 20 19 19 18 17 17 17 17 16 15 15 15 15 15 15 14 14 13 11 10 10 10 12 15 16 15 14 14 15 16 17 19 19 20 21 22 22 22 22 23 24 26 28 30 32 34 34 33 33 33 33 34 35 34 33 32 32 31 31 32 32 31 30 30 30 29 27 27 26 24 23 23 23 22 21 20 19 18
24 24 24 23 22 22 21 21 20 19 18 17 17 17 17 16 15 15 15 15 15 15 14 14 12 10 9 9 9 11 13 14 13 12 12 12 13 14 15 16 17 18 19 20 21 21 22 22 24 25 28 30 32 33 33 33 32 32 32 33 33 33 32 31 30 30 30 30 31 30 29 29 28 27 26 26 25 24 24 23 22 21 20 18 18
25 26 26 24 23 22 22 21 21 20 19 18 17 16 16 16 15 14 14 15 14 14 14 13 11 10 9 8 7 9 11 12 12 12 11 10 10 11 11 12 14 15 17 18 19 19 20 21 22 23 25 27 29 31 32 32 31 30 30 31 32 32 31 30 29 28 29 29 29 29 29 28 28 27 26 26 26 25 24 23 23 21 20 18 17
27 27 25 23 22 22 21 21 21 21 20 18 17 17 16 16 15 14 14 15 14 13 12 12 10 10 9 8 7 8 9 10 11 11 10 9 9 9 9 9 11 12 14 15 16 17 19 20 20 21 22 24 27 29 31 31 30 29 29 29 30 31 31 30 28 26 26 27 27 28 28 28 27 27 27 27 27 26 25 24 23 22 20 18 17
28 27 25 23 22 22 20 20 22 22 21 19 18 17 15 15 15 14 14 15 15 13 12 11 9 9 9 8 7 7 8 8 9 10 10 9 8 8 8 8 9 10 12 12 12 14 16 18 19 20 21 23 25 27 29 29 29 28 28 28 28 29 29 28 26 24 23 23 24 26 26 27 27 28 28 27 26 26 25 24 24 22 20 19 17
28 28 26 24 24 23 21 20 22 23 22 20 20 17 14 14 16 15 14 15 15 14 12 11 10 9 9 8 7 7 7 7 7 8 9 8 7 6 6 7 8 9 10 10 9 11 13 15 17 19 20 22 24 26 27 28 28 27 26 26 26 26 26 26 25 23 21 20 21 23 25 25 25 27 28 27 26 25 24 24 24 23 21 19 18
28 28 26 25 25 23 21 21 23 24 22 21 20 18 15 15 16 15 14 14 15 13 12 11 10 9 8 8 7 7 6 6 6 6 8 8 7 5 4 5 7 8 8 8 8 9 11 13 15 16 18 20 23 25 26 27 26 26 25 25 25 25 25 25 25 23 21 18 18 20 22 23 24 25 27 27 26 25 24 24 24 23 22 20 18
28 27 26 26 25 23 22 22 23 22 21 21 20 18 16 15 16 16 15 14 14 14 13 12 10 9 8 8 7 6 6 6 5 5 6 6 6 5 4 4 5 6 6 7 9 9 10 11 13 15 17 19 22 24 26 26 26 25 25 24 24 24 23 23 23 23 21 18 17 18 20 21 22 23 25 27 27 26 24 24 24 24 23 22 20
28 27 27 26 25 24 23 23 21 20 21 22 21 19 17 16 16 17 16 15 14 14 13 12 11 10 8 8 7 6 6 5 5 4 4 5 5 5 3 3 4 4 5 6 8 9 9 10 12 14 16 18 21 23 25 26 25 24 24 24 23 23 21 21 22 23 22 19 17 17 18 20 21 22 24 26 27 26 25 24 24 24 24 23 22
28 28 27 27 26 25 24 23 21 20 22 22 21 19 18 18 17 18 17 16 15 14 13 13 12 10 8 8 7 6 5 5 4 3 3 4 4 4 3 3 4 4 4 5 7 8 9 10 11 13 16 18 20 22 24 25 24 23 23 23 22 21 21 21 21 21 22 20 18 17 17 19 20 22 23 25 27 27 26 25 24 24 24 24 23
28 28 28 27 27 26 24 23 23 23 22 21 20 19 19 19 18 18 18 17 16 15 14 13 12 11 9 8 7 6 5 4 4 3 2 2 3 2 2 3 4 3 3 4 6 7 8 9 11 13 16 18 20 22 23 23 22 22 21 21 20 20 21 21 21 21 21 20 18 17 16 17 19 22 23 24 26 27 27 25 24 23 23 23 23
Wind_Direction
50 51 54 54 51 51 50 48 45 41 42 46 44 40 38 35 33 34 36 40 44 36 28 27 26 23 21 18 16 14 14 16 19 18 16 14 13 9 5 4 3 0 1 9 16 18 21 23 24 24 25 33 44 47 53 79 93 101 125 134 132 131 135 132 121 110 130 147 151 152 151 151 150 147 148 157 172 188 198 211 224 236 248 251 233
55 56 57 54 53 53 51 46 41 41 46 47 43 41 40 38 38 38 39 41 43 35 28 28 27 23 22 20 18 16 17 19 20 19 16 16 15 10 6 5 4 1 2 7 11 15 18 21 25 27 27 32 40 44 49 85 124 117 117 125 128 137 144 138 127 117 122 139 148 153 159 160 158 162 167 162 166 186 201 213 224 234 248 257 259
61 60 58 56 56 55 52 46 43 46 48 45 42 42 40 39 39 41 42 42 42 36 29 28 27 24 23 22 19 18 20 22 22 20 18 19 16 9 7 7 5 4 4 7 9 12 17 20 23 27 29 32 37 41 49 77 123 125 116 118 119 133 151 145 134 127 126 139 151 157 166 172 170 173 184 178 171 192 206 218 237 246 252 257 261
65 62 60 60 59 56 52 47 46 48 47 45 45 43 40 40 41 43 44 42 40 37 30 28 27 25 24 23 20 20 22 23 23 21 20 20 15 8 7 9 7 6 7 9 11 13 16 20 22 26 31 32 31 33 44 64 95 107 108 112 113 124 142 143 139 137 133 139 158 165 169 178 181 184 194 198 200 213 221 237 256 262 266 266 263
67 63 64 63 59 57 54 50 48 49 49 48 46 43 42 43 44 44 45 42 39 37 31 27 26 26 25 23 21 23 26 24 22 21 21 21 18 12 10 9 8 10 12 13 15 15 16 20 22 24 30 32 26 24 34 55 79 95 105 111 112 119 132 138 138 140 141 146 161 171 174 182 189 193 201 207 210 219 227 240 257 268 273 270 266
68 67 68 65 60 58 56 52 50 51 51 49 46 44 44 45 45 45 43 41 40 38 33 27 25 26 26 23 22 25 28 26 23 22 21 22 20 15 13 11 9 12 16 17 19 19 17 18 20 21 26 31 26 19 25 46 73 94 107 114 116 121 131 138 141 142 145 150 159 172 182 189 194 198 206 212 214 223 230 234 251 266 272 267 260
71 71 71 67 62 62 59 54 53 54 53 50 47 46 45 45 45 43 43 44 41 37 35 29 25 26 25 23 23 26 28 27 24 23 23 23 20 15 13 13 12 13 17 20 21 22 21 20 20 19 22 30 27 18 23 47 74 95 109 117 123 129 136 141 143 141 140 144 155 171 183 192 198 201 209 215 221 238 248 243 239 243 260 260 247
75 74 72 69 66 66 63 57 57 58 55 51 49 47 47 46 45 44 45 46 41 37 36 34 30 27 25 24 24 26 28 27 23 21 22 24 22 17 15 15 14 14 18 21 21 22 23 23 22 20 22 33 33 20 28 58 81 95 111 122 130 137 141 142 141 138 136 140 155 171 182 191 198 202 211 218 224 241 258 252 227 191 156 188 229
79 75 73 72 71 69 66 61 60 58 53 52 52 50 48 47 46 46 46 45 41 37 36 34 31 28 25 24 24 26 28 25 21 20 23 25 22 19 18 19 18 15 17 20 20 20 23 24 24 24 27 39 45 32 39 65 85 95 109 127 136 138 138 137 139 139 138 142 158 171 177 184 192 197 204 210 213 219 226 220 196 162 136 120 132
80 76 75 75 74 72 68 63 60 56 54 54 54 52 49 48 47 45 45 44 42 38 35 32 31 29 25 23 24 27 27 23 21 25 28 28 24 20 20 21 20 17 17 19 19 19 22 24 27 29 31 39 50 46 47 60 78 94 108 120 126 129 134 136 138 142 143 149 161 167 167 177 188 193 187 162 149 138 143 159 161 147 128 110 105
82 78 76 78 77 72 68 65 61 58 57 57 55 52 49 48 47 46 45 44 41 37 35 33 31 30 27 23 23 26 26 23 24 27 29 31 29 24 22 22 22 20 19 20 20 19 21 24 28 31 30 35 47 52 49 55 66 82 104 114 109 109 124 136 145 151 149 151 162 166 167 176 186 185 151 123 127 119 124 149 159 155 141 116 107
86 80 76 77 78 73 69 65 62 60 60 58 55 52 49 48 48 46 45 42 38 35 33 32 31 30 29 26 24 24 24 23 25 26 27 32 34 29 27 25 23 22 22 24 25 22 22 25 29 31 31 35 46 53 47 49 59 69 87 108 110 105 114 133 155 167 162 156 159 164 167 170 173 158 131 127 124 113 116 138 159 168 155 116 108
88 82 75 77 80 75 69 64 62 62 62 60 56 53 51 49 47 46 43 39 36 34 32 31 31 30 29 29 27 24 22 23 26 26 27 33 36 33 31 29 26 25 24 27 30 26 24 27 29 31 33 36 42 49 49 48 55 63 70 83 100 115 125 141 160 170 171 165 160 159 161 159 153 141 131 123 113 112 121 132 150 158 126 99 99
91 83 75 78 80 75 68 63 62 63 63 60 57 54 51 50 48 47 44 39 37 35 33 31 31 30 29 29 28 25 22 23 25 26 28 34 37 35 34 33 31 29 27 29 33 29 26 30 32 32 33 35 37 42 47 50 56 60 63 69 76 84 93 122 154 164 167 166 160 156 155 150 141 129 119 108 96 99 112 122 130 130 110 96 90
92 84 76 79 80 74 67 63 63 65 64 61 58 54 52 51 49 48 45 42 39 37 35 33 31 31 29 29 29 27 24 23 26 26 26 32 36 37 36 35 34 33 31 31 35 34 29 32 37 36 34 36 37 41 45 49 54 58 58 63 68 70 72 81 108 137 148 151 146 140 136 130 122 113 110 110 95 88 101 119 127 127 117 106 91
88 83 81 83 80 72 65 63 65 67 65 62 58 53 50 49 49 50 48 45 41 38 36 35 33 31 31 30 30 28 25 25 26 26 26 30 34 36 37 36 34 35 35 34 37 37 31 32 38 39 37 36 37 42 49 51 54 57 56 58 62 66 70 76 89 106 118 122 122 122 120 115 107 99 96 98 92 89 101 118 142 151 136 114 89
88 85 87 86 79 72 66 62 65 68 66 63 59 52 49 50 52 53 50 46 42 38 36 37 36 34 33 31 30 28 27 26 27 27 27 29 33 34 34 35 33 33 36 38 39 39 34 32 37 41 41 39 37 40 49 54 54 54 53 54 58 61 67 76 88 100 109 115 117 114 111 106 97 84 76 76 78 82 90 96 140 172 152 117 86
93 92 93 86 77 74 68 61 64 70 68 64 60 55 53 55 57 58 54 49 45 41 39 40 39 37 35 33 31 30 28 28 29 30 29 30 33 33 32 33 33 31 34 38 40 41 38 35 39 42 41 41 42 43 49 54 53 50 48 49 51 51 55 64 78 93 105 112 112 105 96 88 80 76 71 66 60 54 57 60 76 170 152 126 103
99 99 98 87 79 78 73 65 67 71 69 66 63 60 59 61 63 63 58 52 48 44 42 42 40 38 36 35 33 32 30 29 30 31 31 31 34 34 34 34 32 29 30 35 38 41 41 40 41 43 43 45 48 49 52 56 54 49 46 44 41 38 43 55 67 82 101 110 105 96 88 80 75 75 68 61 58 55 56 59 79 149 142 122 106
105 106 104 92 84 83 78 71 70 72 72 70 68 66 65 66 67 65 60 56 52 48 45 44 42 39 37 36 35 33 30 30 31 32 33 33 34 36 36 35 31 28 31 35 35 37 40 41 40 42 44 47 50 53 56 57 56 53 51 47 38 34 42 60 71 75 92 107 102 93 89 85 83 81 72 67 69 69 69 73 90 122 128 113 99
113 113 111 101 92 89 84 77 74 73 72 70 68 68 68 68 68 66 62 58 54 50 46 44 42 40 38 36 35 34 32 31 31 32 34 35 36 38 38 36 31 30 35 39 37 34 35 37 38 41 44 47 51 55 57 58 59 57 54 51 49 49 55 67 81 85 88 98 99 96 97 99 98 91 82 77 78 78 80 89 96 99 104 105 100
121 121 119 110 101 96 91 84 78 76 73 69 67 67 67 67 67 67 64 60 56 51 47 44 42 40 39 37 34 34 33 32 31 32 33 36 39 40 39 38 37 36 37 39 38 35 34 35 37 40 46 49 52 55 57 58 58 55 52 55 63 65 63 66 78 89 100 118 118 107 100 105 105 97 87 83 85 85 85 90 94 92 93 97 94
123 123 123 118 110 103 98 91 83 78 75 72 69 67 67 68 67 66 64 61 57 52 47 44 42 40 38 36 34 33 33 32 31 32 33 37 41 42 42 42 43 43 41 38 37 36 37 39 40 42 48 52 52 52 55 55 53 51 52 58 64 69 68 66 65 65 67 81 104 111 114 113 104 93 92 95 95 91 86 83 86 89 93 92 85
123 120 124 125 118 111 106 98 88 81 77 73 71 68 67 68 68 67 64 61 57 52 47 44 42 39 36 34 33 33 33 31 30 30 33 37 41 43 45 45 46 46 44 40 38 39 41 43 43 44 49 53 53 53 53 51 49 48 51 56 61 65 66 62 59 60 60 55 50 65 100 111 101 93 102 109 103 94 87 85 89 90 88 87 84
126 120 127 132 127 119 115 105 93 85 79 74 72 70 67 67 69 68 64 61 57 52 47 43 41 39 36 33 32 33 34 32 29 28 31 36 40 43 46 48 48 48 46 42 40 42 45 48 49 48 48 50 52 53 50 47 45 47 49 52 55 56 55 52 52 55 55 48 40 39 44 70 99 106 110 112 109 101 94 90 91 88 80 78 80
129 120 126 136 134 126 121 114 102 92 84 79 76 72 68 67 69 69 65 61 57 53 48 44 41 38 35 33 32 34 36 35 32 28 29 35 40 43 45 47 49 50 49 46 43 45 48 51 52 49 47 47 48 48 46 44 44 45 47 48 48 48 47 46 46 46 42 37 37 38 30 28 119 127 119 112 105 98 97 97 92 79 63 62 73
136 125 126 136 140 135 129 123 114 103 93 86 82 77 71 68 68 69 66 62 58 53 49 45 41 38 35 34 35 35 35 36 34 30 29 33 39 42 44 46 46 47 47 46 45 46 47 48 49 49 46 45 44 44 44 44 42 42 41 41 41 43 44 43 42 42 38 31 30 37 43 52 132 163 149 133 115 101 101 99 97 87 51 44 67
144 137 132 138 145 144 139 132 125 115 105 94 86 80 74 69 70 71 68 63 58 53 51 48 44 41 40 39 40 40 37 36 35 31 29 33 39 42 44 45 45 45 46 45 45 46 46 46 47 46 44 40 38 38 39 39 38 37 37 36 36 38 41 42 41 41 38 32 31 38 47 55 57 41 2 23 53 87 143 172 112 128 57 38 69
147 142 138 138 144 147 144 137 131 125 116 106 95 88 80 73 72 74 72 67 61 56 54 53 52 51 50 48 48 48 46 43 40 36 34 37 42 44 45 46 48 49 49 49 49 47 46 44 42 40 37 34 32 31 31 31 31 32 34 34 33 34 36 36 35 34 33 32 32 34 37 43 48 48 38 18 11 13 337 253 243 200 165 74 89
150 142 136 135 139 143 141 135 132 128 123 116 108 101 92 82 76 75 75 72 66 61 58 58 59 60 60 58 56 57 55 49 44 41 41 42 46 48 50 51 54 53 53 53 52 49 45 42 39 36 34 33 31 28 25 24 24 25 28 30 31 31 31 30 29 30 31 31 30 29 31 36 41 40 35 27 23 24 26 328 236 204 179 128 116
150 142 138 135 134 136 136 134 132 127 123 120 115 111 105 94 82 76 77 78 72 66 65 66 65 63 62 61 60 59 56 49 44 44 46 46 47 49 50 53 55 54 54 55 53 48 43 41 38 35 34 34 31 28 25 24 22 22 23 25 26 27 27 26 24 25 26 26 27 28 29 33 36 33 29 28 30 36 42 42 228 201 186 157 136
149 144 142 138 134 132 133 133 132 131 129 125 120 118 116 109 95 80 76 79 77 72 70 72 70 64 59 57 56 57 54 49 45 46 48 49 49 50 50 52 54 54 55 56 53 47 42 41 38 35 34 33 31 29 27 26 24 23 24 24 22 22 24 23 23 25 25 23 23 25 27 28 28 28 28 29 32 37 41 38 27 205 192 172 150
153 148 145 142 137 133 132 131 129 129 130 129 126 124 122 120 110 91 79 80 81 77 76 75 72 65 59 56 55 57 56 51 48 48 50 50 51 51 52 52 53 53 54 55 52 47 43 42 39 36 34 33 31 29 29 27 25 25 25 24 22 21 23 25 26 27 26 23 21 22 22 22 21 22 26 30 33 34 35 34 33 38 186 178 162
158 154 150 147 143 138 135 133 129 125 122 122 122 120 118 119 116 103 90 87 86 82 79 77 72 66 63 59 56 58 57 53 50 50 51 51 52 53 53 53 52 52 53 53 51 47 44 42 39 36 35 34 32 31 29 27 26 25 24 24 24 24 26 29 30 29 26 23 21 20 18 17 18 19 21 25 29 30 31 32 34 34 26 350 183
160 157 155 153 148 143 140 138 134 129 125 121 119 115 114 118 117 105 92 87 88 86 82 79 73 69 66 63 59 58 58 56 52 50 50 51 53 53 52 51 49 49 50 50 50 48 45 42 40 37 35 34 33 31 30 28 26 25 24 23 23 24 26 29 31 31 28 25 22 20 18 17 18 18 17 19 22 23 23 24 28 31 29 14 288
161 158 158 158 153 147 143 141 138 135 130 126 122 118 116 119 117 107 93 87 88 90 88 85 81 76 71 67 63 61 60 59 55 52 50 50 51 52 53 52 51 49 49 49 49 48 46 43 41 38 36 35 33 32 31 29 27 26 25 24 24 24 25 27 28 29 28 26 24 22 20 18 17 16 15 16 17 16 16 18 22 27 30 25 350
164 163 163 162 157 150 145 143 142 139 135 131 128 124 123 124 122 113 100 92 91 95 96 92 87 83 77 70 64 63 65 63 58 54 52 50 50 52 55 55 54 53 53 51 50 49 47 44 42 40 37 35 33 32 31 30 28 26 26 26 25 24 25 27 29 29 27 26 25 24 21 19 18 15 13 13 13 13 13 15 18 23 28 33 41
169 166 163 161 158 153 149 147 146 143 140 136 134 131 129 130 129 121 109 101 99 102 104 99 91 87 83 76 67 65 68 66 61 57 53 50 50 52 55 55 55 55 55 54 53 52 50 47 44 42 39 36 34 33 31 30 29 27 25 25 26 25 25 28 30 30 28 26 25 23 20 18 18 16 13 11 10 9 10 11 12 16 23 29 36
167 161 157 157 157 156 154 152 149 147 144 141 140 137 135 135 135 129 118 110 106 106 106 104 97 90 85 79 69 65 67 67 64 61 58 54 52 51 52 54 55 55 56 56 55 54 52 48 45 42 40 37 34 33 31 30 29 28 26 25 25 25 25 26 27 27 26 25 24 22 19 18 17 15 13 12 10 7 7 9 10 12 16 20 22
166 161 158 159 159 159 157 154 152 151 148 145 145 143 140 138 138 135 127 118 112 108 107 105 100 93 85 76 64 60 65 69 68 65 63 59 55 52 50 51 52 53 53 53 51 50 48 45 42 39 37 35 33 31 30 29 28 28 27 26 25 25 24 24 24 25 24 23 21 20 20 18 15 14 12 11 10 8 7 9 10 11 15 18 22
170 166 165 164 162 161 159 156 155 154 150 148 147 146 143 141 140 139 134 125 118 112 108 106 103 97 88 76 64 59 64 69 71 70 67 63 59 55 51 49 48 48 48 47 45 43 41 39 36 35 33 32 30 29 28 27 26 26 26 24 24 23 23 23 23 23 23 22 20 19 20 18 14 12 10 8 8 10 11 11 11 10 13 19 26
175 171 169 168 168 167 164 160 158 155 153 151 149 147 146 145 143 142 139 133 126 120 114 111 110 105 95 84 72 64 63 67 71 74 72 67 62 57 53 49 45 44 44 42 40 39 37 35 32 30 29 28 27 26 26 25 24 24 24 23 22 21 21 21 21 22 22 21 19 18 19 17 14 11 9 8 9 11 12 11 11 9 9 13 22
179 174 171 171 172 172 169 165 162 158 156 154 152 149 148 148 146 146 144 140 135 130 123 117 115 114 110 100 86 73 68 66 68 73 76 71 63 58 55 49 44 41 40 39 36 34 32 32 30 27 25 25 25 24 24 24 23 22 22 22 21 20 18 17 18 18 17 18 18 18 18 16 13 10 9 9 10 11 11 10 10 8 5 5 11
181 177 175 174 175 175 173 171 168 163 159 156 155 153 151 151 150 150 150 147 143 138 132 125 120 120 122 117 101 88 80 71 66 68 74 76 68 60 54 49 43 39 37 36 34 30 27 27 26 24 22 21 20 20 21 22 21 22 21 20 19 18 17 15 15 14 13 13 15 17 17 15 12 9 9 10 10 11 10 9 8 6 3 1 3
182 178 175 175 176 174 173 172 170 165 161 160 159 157 155 156 156 153 153 155 151 146 141 136 128 126 129 128 117 105 96 83 70 65 67 74 75 66 56 52 47 40 35 33 30 26 23 21 20 18 17 17 16 16 17 19 20 21 21 20 18 17 15 14 12 11 10 10 12 15 17 15 11 10 10 11 11 10 9 7 5 4 3 360 356
182 179 177 177 176 174 173 171 170 167 165 165 164 159 155 158 160 158 158 159 157 152 148 144 138 134 134 132 127 120 111 98 83 69 62 66 75 74 61 54 51 43 35 29 24 20 18 16 15 13 12 11 11 11 13 15 17 18 19 19 18 16 14 13 11 9 9 8 9 13 17 15 12 11 11 12 12 11 9 7 5 4 3 0 355
181 181 181 181 179 177 175 172 169 167 168 169 168 162 155 155 159 160 161 161 160 157 155 152 148 144 139 135 134 133 125 112 96 77 63 57 64 73 68 57 53 45 31 20 16 15 13 11 10 8 7 5 5 7 9 11 13 15 16 17 17 15 13 11 10 9 8 6 7 12 16 17 14 12 11 12 12 11 8 7 6 4 3 2 358
181 182 183 184 182 179 178 175 173 173 174 173 172 167 161 158 160 162 163 165 165 162 160 158 155 151 145 140 140 141 138 127 110 88 67 54 54 65 71 60 54 47 28 13 10 11 10 8 5 3 2 1 0 3 5 6 9 12 13 14 15 14 11 10 9 8 7 5 7 12 17 19 18 16 13 12 12 11 9 7 6 5 4 3 2
184 184 186 187 185 183 182 182 182 183 182 178 175 172 168 165 165 166 168 170 170 168 167 165 162 157 152 149 147 148 149 143 126 100 75 55 48 54 58 50 43 38 24 10 5 5 6 4 0 358 358 357 357 359 1 2 5 8 10 10 11 11 10 9 10 9 7 5 8 12 15 19 21 21 18 15 13 12 11 9 7 6 6 5 4
188 189 191 190 189 188 187 187 186 183 179 177 177 175 172 172 172 172 172 173 172 170 171 170 167 164 161 157 155 157 159 154 143 120 89 61 46 45 41 27 20 18 12 4 360 359 360 359 356 353 352 353 353 355 358 359 1 4 7 6 6 7 8 9 11 11 8 7 8 11 13 18 22 23 22 19 16 13 12 11 10 9 7 6 6
191 193 195 194 193 191 190 190 188 184 181 181 183 181 177 176 176 176 176 175 174 173 173 173 170 168 166 164 160 162 166 164 158 149 119 60 37 37 27 11 5 4 359 355 354 353 352 352 350 348 347 347 349 352 354 356 358 1 3 3 3 5 8 9 11 11 10 9 10 11 12 17 23 25 25 23 19 15 13 13 12 11 8 7 7
Height
865 864 862 860 859 857 854 852 850 848 846 844 843 841 840 838 836 834 833 831 830 828 826 824 821 819 816 813 809 805 802 798 794 791 787 784 780 776 772 769 766 762 759 756 753 750 748 744 741 738 735 732 731 730 729 728 728 728 727 730 735 739 741 744 749 755 761 762 763 767 770 771 772 773 773 774 775 775 775 776 776 776 777 777 778
866 865 863 861 860 857 855 853 851 849 847 845 844 843 841 839 837 836 834 833 831 829 827 825 822 820 817 814 811 807 803 800 796 793 789 786 782 778 775 772 769 765 761 758 755 752 750 747 744 742 738 735 733 732 731 729 730 731 731 733 737 740 742 745 749 754 760 764 765 767 770 772 772 773 773 774 774 775 775 775 776 776 777 777 778
867 866 864 862 860 858 856 854 852 850 848 847 845 844 842 840 838 837 836 834 833 831 829 826 824 821 818 816 812 809 805 801 798 794 791 788 784 781 778 775 772 769 765 761 758 755 752 750 747 745 742 738 736 734 733 732 731 732 734 735 738 742 745 746 748 753 759 764 766 768 770 772 772 772 773 774 774 774 775 775 776 776 777 777 778
868 866 865 863 861 859 857 855 853 851 849 848 847 845 843 841 840 838 837 836 834 832 830 828 825 823 820 817 814 811 807 803 799 796 793 790 788 785 782 778 775 773 769 765 762 759 756 753 750 748 745 741 739 737 736 735 734 733 735 737 740 743 746 747 749 753 758 763 766 768 769 771 772 772 773 774 774 774 775 775 775 776 777 777 778
868 867 866 864 862 860 858 856 854 852 851 850 848 846 845 843 841 840 838 837 835 834 831 829 826 824 822 820 817 813 809 805 801 798 795 792 790 787 784 781 778 775 772 768 765 762 760 757 754 750 747 744 742 740 738 737 737 736 737 739 742 744 747 749 751 754 758 762 766 768 770 770 771 773 773 774 774 774 774 775 775 776 777 777 778
869 868 867 865 863 861 859 857 856 854 852 851 849 848 846 844 843 841 840 838 837 835 833 831 828 826 824 822 819 815 811 807 803 800 797 794 791 789 786 783 781 778 774 771 768 765 762 760 757 754 751 748 745 742 740 739 739 740 740 742 744 746 749 752 754 756 760 763 766 768 770 771 772 773 773 773 774 774 774 775 775 776 776 776 777
870 869 867 865 864 862 860 859 857 855 854 852 851 849 847 846 844 843 841 840 838 837 834 833 831 828 826 823 820 816 812 809 805 803 800 797 794 791 789 785 783 780 777 774 771 768 765 762 760 757 754 751 748 744 742 742 742 743 744 746 747 749 751 754 756 759 762 765 767 768 770 771 772 772 773 774 775 774 774 775 775 776 776 776 776
871 870 868 866 865 863 862 860 858 857 856 854 852 850 849 847 846 844 843 841 840 839 836 834 832 830 827 824 821 818 814 810 808 806 803 800 797 794 791 788 785 782 779 777 774 771 768 765 763 760 757 754 751 748 746 745 745 746 747 749 750 752 754 756 758 761 764 766 768 769 770 771 772 772 773 774 775 774 774 774 775 775 776 776 776
872 870 868 867 865 864 863 861 860 858 857 855 853 852 850 849 847 846 844 843 842 840 838 836 833 831 829 826 823 820 816 813 812 810 806 802 799 797 794 791 788 785 782 779 777 774 771 768 765 763 760 757 755 752 750 749 749 750 751 752 753 754 756 758 760 762 764 766 768 769 770 771 772 773 773 773 774 774 773 773 774 775 776 776 777
872 871 869 868 866 865 864 862 861 859 857 856 855 853 852 851 849 848 846 845 843 842 840 837 834 832 830 828 825 822 819 817 816 812 808 805 802 799 796 794 791 788 785 782 780 777 774 771 768 766 763 760 758 755 754 753 753 753 755 756 756 757 758 759 761 763 765 766 767 769 770 771 772 772 773 773 773 773 773 773 774 775 776 777 777
873 871 870 868 867 866 865 863 862 860 858 857 856 855 854 852 851 849 848 846 845 843 841 838 836 834 832 830 827 824 822 820 817 814 810 807 804 801 799 797 794 791 789 786 784 781 778 775 771 769 766 763 761 759 758 758 757 757 757 758 759 759 760 761 762 764 766 767 768 769 770 771 772 772 773 773 773 774 774 774 774 775 776 777 778
873 872 870 869 868 867 865 864 862 860 859 858 857 856 855 854 852 851 849 848 847 844 842 840 838 836 834 832 830 827 825 822 819 816 812 809 806 804 801 799 797 795 792 790 787 785 782 779 775 772 770 768 765 763 762 762 761 760 760 760 760 761 762 763 764 765 767 768 769 770 771 771 772 773 774 774 774 774 775 775 775 776 776 777 778
874 872 871 870 868 867 866 864 863 861 860 859 859 857 856 855 854 853 851 850 848 846 844 842 840 838 836 834 832 829 827 824 821 818 815 811 809 806 803 802 800 798 795 792 790 788 785 782 778 775 773 771 770 768 767 766 765 764 763 762 762 763 763 764 765 766 768 768 769 771 771 772 773 774 774 775 775 775 776 776 776 777 777 778 778
874 873 871 871 869 868 867 865 863 863 861 861 860 858 858 857 856 854 853 851 849 847 846 844 841 840 838 836 834 831 829 826 823 820 817 813 811 808 806 804 802 801 798 795 793 791 788 786 782 780 777 776 775 773 772 770 769 768 767 765 764 765 765 765 766 767 769 770 771 771 773 773 774 774 775 776 776 776 776 777 777 777 778 778 779
874 873 872 871 870 869 867 866 865 864 863 862 861 860 859 858 857 856 854 853 851 850 848 846 844 842 840 838 836 833 831 828 824 821 818 815 813 810 808 806 805 803 801 798 795 793 791 789 786 784 782 780 780 778 776 774 772 771 770 768 768 768 768 768 768 769 771 772 773 773 774 775 776 776 776 776 776 776 777 777 778 778 778 779 780
875 874 873 872 871 870 868 867 866 865 864 863 862 861 861 859 859 858 856 854 853 851 850 848 846 844 842 840 838 835 833 830 826 823 820 817 814 812 810 808 807 806 804 801 798 796 794 792 789 788 786 785 783 782 780 778 776 774 773 773 772 772 771 771 772 773 774 775 775 776 777 777 777 778 778 777 777 777 777 777 778 778 778 779 780
875 875 873 872 872 871 870 868 867 866 865 864 863 863 862 861 860 859 857 856 854 853 852 850 848 846 844 842 840 838 835 832 829 825 822 819 816 814 812 811 810 808 806 805 802 800 799 797 794 791 789 788 787 785 782 780 779 778 777 776 776 775 775 775 776 777 778 778 778 778 778 779 779 779 779 779 779 779 778 778 778 778 778 780 780
876 875 874 873 873 872 871 869 868 867 866 865 865 864 863 862 861 860 859 858 857 856 854 852 850 848 846 844 843 841 838 835 832 828 824 821 818 816 814 813 811 810 809 807 806 804 803 801 798 795 793 792 791 788 785 783 782 781 780 779 779 778 779 779 779 780 780 780 781 780 780 780 780 780 781 781 780 780 779 779 778 778 779 780 781
877 876 875 874 874 873 872 871 870 868 868 867 867 866 865 864 863 862 861 859 858 857 855 854 852 850 848 847 844 842 840 838 834 831 828 824 821 819 817 815 814 813 811 810 808 806 805 803 801 799 797 795 793 791 788 786 785 784 783 782 781 781 782 782 782 782 782 782 783 782 782 782 782 782 782 782 782 781 781 780 779 778 779 781 781
877 877 876 875 875 874 873 873 872 870 870 869 869 868 867 866 865 864 862 861 860 859 857 855 854 852 850 848 846 844 842 840 837 834 831 828 825 822 820 818 817 816 815 813 811 809 807 806 804 802 800 798 796 794 791 789 788 787 785 784 784 784 784 783 783 783 783 783 784 784 784 784 784 784 784 784 783 783 782 782 781 780 781 782 782
878 877 877 876 876 876 875 875 874 873 872 872 870 870 869 868 867 865 864 863 861 860 859 858 856 854 853 851 849 847 845 843 840 837 834 831 828 825 823 822 821 820 817 815 814 812 811 810 809 807 804 802 799 796 794 793 791 789 789 789 788 787 786 785 784 784 784 784 785 785 785 785 786 785 785 785 785 785 784 784 783 783 783 783 783
878 878 877 877 877 876 876 876 875 875 875 873 872 872 871 870 869 867 866 865 863 862 861 860 858 856 854 853 851 849 848 845 842 839 837 834 831 829 826 825 824 822 819 817 816 815 814 813 812 811 808 805 802 799 797 795 793 792 792 791 789 787 787 786 785 785 785 785 786 786 786 787 787 787 787 787 787 787 786 786 785 785 785 785 785
879 878 878 878 878 877 877 877 877 877 876 875 874 874 873 871 870 869 868 866 865 864 863 861 860 858 856 855 853 851 850 848 845 842 840 837 834 832 830 828 826 823 822 820 819 818 817 816 814 812 810 807 804 802 799 797 795 795 793 791 789 788 787 787 786 786 786 786 787 787 788 788 789 789 789 789 789 788 788 788 787 787 786 786 786
879 879 879 879 879 879 878 878 878 878 878 877 876 875 874 873 872 871 870 868 867 866 865 864 862 860 859 857 856 854 852 850 848 845 842 840 837 835 833 831 828 826 825 824 823 821 820 818 816 814 811 808 806 804 801 800 798 797 795 792 790 789 788 788 788 788 787 788 790 791 791 791 791 791 791 791 791 790 790 789 789 789 788 788 788
879 879 879 879 879 879 879 879 879 879 879 878 878 877 876 875 873 872 871 870 869 868 867 866 864 863 861 860 858 857 855 853 851 848 845 842 840 837 835 833 831 829 827 826 825 824 822 820 818 816 813 810 807 805 804 803 802 800 797 795 793 792 792 792 791 790 790 792 794 794 794 794 794 793 793 793 792 792 792 791 791 790 790 789 789
878 878 879 879 879 880 880 880 880 880 880 880 879 878 878 876 875 874 873 872 871 870 869 868 867 865 863 862 861 860 858 856 854 851 848 845 841 839 837 835 834 832 830 829 828 825 823 821 818 816 815 812 810 808 808 807 806 803 800 799 797 796 796 796 795 794 795 796 796 796 797 796 796 796 795 794 794 793 793 793 792 792 792 791 790
878 878 878 879 879 879 880 880 881 881 881 881 880 880 879 878 877 876 875 874 873 872 871 870 869 867 866 864 863 861 859 858 856 854 851 848 844 842 840 837 836 834 832 830 829 826 824 822 819 818 816 815 814 812 811 809 808 806 805 804 803 803 802 801 801 800 800 800 799 798 798 797 797 797 797 796 795 794 794 794 793 793 793 792 791
877 878 878 878 879 879 879 880 880 881 881 881 881 881 880 879 878 877 877 877 876 875 874 872 871 871 869 868 866 863 862 861 859 858 856 852 848 845 843 840 838 836 834 833 831 828 825 822 819 817 816 815 814 814 813 812 812 812 811 810 808 807 805 804 803 802 802 802 800 799 798 797 797 797 797 797 797 796 795 795 794 794 794 793 793
877 878 877 877 878 879 879 880 880 881 881 881 881 882 881 881 880 879 879 879 878 877 876 875 875 874 873 871 869 867 866 866 865 864 861 857 853 849 847 845 843 840 839 837 833 829 825 822 820 820 820 819 818 817 817 818 817 816 815 813 811 809 807 805 805 804 804 803 801 800 799 798 798 797 798 798 798 797 796 796 795 795 795 794 794
877 878 877 878 878 878 879 880 880 881 881 881 881 882 882 882 882 881 881 881 880 880 879 878 878 877 876 875 873 872 871 870 869 867 864 861 857 854 851 849 846 843 841 838 833 830 829 829 829 829 828 827 826 825 825 824 822 821 819 817 815 813 812 811 810 809 808 806 805 804 802 800 799 798 798 798 798 797 797 796 796 795 795 795 796
877 877 877 878 878 879 879 880 881 881 882 882 881 882 882 883 883 882 882 882 882 882 881 880 880 879 878 877 876 875 873 872 870 868 865 863 860 857 854 851 848 846 843 838 834 835 837 837 837 837 836 835 834 833 832 830 829 827 824 822 820 819 817 816 814 813 811 810 808 806 804 802 801 801 800 800 799 798 797 797 796 796 796 796 796
877 877 878 878 878 879 880 880 881 882 882 882 882 882 882 883 883 884 884 884 883 883 883 882 882 881 880 879 877 876 875 873 871 869 867 865 863 860 857 854 851 849 845 839 839 843 844 843 843 843 842 841 840 839 838 836 834 832 829 827 825 823 822 820 819 817 815 813 810 808 806 805 804 803 802 801 800 798 798 797 797 797 797 797 797
876 877 878 878 879 879 880 881 881 882 882 882 883 883 883 883 883 884 885 885 885 885 884 884 883 882 881 880 879 878 876 875 873 871 869 867 865 863 860 857 854 851 847 843 845 849 850 849 849 848 847 846 845 844 842 840 839 837 834 833 831 829 827 825 822 819 817 816 814 812 810 809 807 805 803 802 801 800 799 798 797 797 798 798 798
876 877 878 879 879 880 881 881 882 882 882 883 883 883 883 883 884 885 886 885 886 886 886 885 885 884 883 882 881 879 878 877 875 873 871 869 867 865 863 860 857 854 851 850 852 854 854 853 853 852 851 851 849 848 846 844 843 841 839 837 835 833 830 827 824 822 820 819 817 815 814 812 810 807 805 804 802 802 801 800 799 798 799 800 801
876 877 878 879 879 880 881 881 882 882 882 883 883 883 884 884 885 885 886 886 886 887 887 886 886 885 885 884 882 881 880 878 877 875 873 871 869 867 863 860 858 857 857 857 858 858 858 858 857 856 855 854 852 851 849 848 846 844 842 840 838 835 833 829 827 825 824 822 820 818 817 815 813 811 809 807 805 804 803 802 801 800 799 800 801
875 876 877 878 879 880 881 881 882 882 882 883 883 884 884 884 885 886 886 886 887 887 887 887 887 887 886 885 884 883 881 880 879 877 875 873 871 867 864 863 863 863 863 863 863 863 862 862 861 860 859 857 855 853 852 850 849 847 845 843 841 838 836 833 831 829 827 825 824 821 819 817 816 814 812 810 809 808 807 805 804 802 801 800 800
874 875 876 877 878 879 880 881 881 882 882 883 883 884 884 885 886 886 886 887 887 888 888 888 888 888 887 886 885 884 883 882 880 878 877 875 873 870 868 868 869 868 868 867 867 866 865 865 864 862 861 859 858 856 854 852 851 849 847 845 843 841 839 837 834 832 830 828 826 824 822 820 819 817 815 813 811 810 808 807 805 803 802 801 800
873 874 875 877 878 878 879 880 881 882 882 883 884 884 884 885 886 886 887 888 888 889 889 889 889 888 888 887 887 885 884 883 881 879 879 877 875 873 873 873 872 871 871 871 870 869 868 867 866 865 864 862 860 858 856 854 852 850 848 846 845 843 841 839 836 834 832 830 829 827 825 823 821 819 818 816 814 812 810 808 806 804 802 801 800
873 874 876 877 877 878 879 880 881 882 882 883 884 885 885 886 886 887 887 888 889 889 889 889 889 889 888 888 888 886 885 883 882 881 880 879 878 877 877 876 875 874 874 873 873 871 871 870 869 867 866 864 862 860 858 856 854 852 850 848 846 844 841 839 838 836 834 832 831 829 828 826 824 822 820 818 816 814 812 810 808 806 805 803 802
873 874 876 876 878 879 880 880 881 882 882 883 884 885 886 886 886 887 888 888 889 889 889 889 889 889 889 889 888 887 885 884 883 883 882 881 881 880 879 879 878 877 876 875 875 874 873 872 871 869 868 866 865 863 861 859 856 854 852 850 848 846 844 842 840 838 836 835 833 831 829 827 825 824 822 820 819 817 814 812 810 808 807 805 804
872 874 875 876 877 878 879 880 881 882 883 884 884 885 886 886 886 887 888 888 889 889 890 890 890 890 889 889 889 888 886 885 885 884 884 883 883 882 882 881 880 879 878 877 876 876 875 874 873 871 870 868 867 865 863 861 858 856 854 852 850 848 846 844 842 840 839 837 835 833 831 829 827 826 824 822 820 818 816 813 811 810 808 807 806
871 872 873 875 876 877 878 880 881 882 883 884 884 885 886 886 886 887 888 888 889 889 889 890 890 890 890 890 889 888 887 887 886 886 885 884 884 884 883 883 882 881 880 879 878 877 876 875 874 873 872 870 868 866 864 862 860 858 856 854 852 850 848 846 844 842 840 839 837 835 833 831 830 828 826 824 822 819 817 815 813 811 810 808 807
870 871 873 874 875 876 878 879 880 881 882 883 884 885 886 886 887 887 887 888 889 889 889 890 890 890 890 890 890 889 889 888 888 887 886 886 885 885 885 884 884 883 882 881 879 879 878 877 876 875 873 872 870 869 866 865 862 860 858 856 854 852 849 847 845 843 841 840 838 836 835 833 831 830 828 825 823 820 819 817 815 813 811 810 809
870 871 873 874 875 876 878 879 880 881 882 883 884 885 885 886 887 887 887 888 889 889 889 890 890 890 890 890 890 890 889 889 889 888 887 887 886 886 886 885 885 884 883 882 881 880 879 878 877 876 875 874 872 871 869 867 864 862 860 858 856 854 851 849 847 845 843 842 840 838 836 834 833 831 829 826 823 821 820 818 816 814 812 811 810
869 871 872 873 875 876 877 878 879 880 881 882 883 884 885 886 886 887 887 888 888 889 889 890 890 890 890 890 890 890 890 890 889 889 888 888 887 887 887 886 886 885 884 883 882 881 880 879 878 877 876 875 874 872 870 868 866 864 862 860 858 855 853 851 850 848 846 844 842 839 837 835 834 832 830 827 825 823 821 819 818 816 814 812 810
868 870 871 872 874 875 877 878 879 879 880 881 882 883 884 885 886 886 887 887 888 889 889 889 890 890 890 890 890 890 890 890 890 889 888 888 888 888 887 887 886 886 885 884 883 882 881 880 879 878 877 876 875 873 871 869 868 866 864 862 860 858 856 854 852 850 848 846 843 841 839 837 835 833 831 829 827 825 822 821 819 817 815 813 811
867 869 870 872 873 875 876 877 878 879 880 880 881 882 883 884 885 886 887 887 888 888 888 889 890 890 890 890 890 890 890 890 890 889 889 888 888 888 888 887 887 886 885 884 884 883 882 881 880 879 878 877 875 874 872 870 869 867 865 863 861 859 857 855 853 851 849 847 845 843 840 838 836 834 832 830 828 826 824 822 820 818 816 814 812
866 867 869 870 872 874 875 876 877 878 879 879 880 881 882 883 884 885 886 886 887 888 888 889 890 890 890 890 889 890 890 890 890 890 889 889 888 888 888 888 887 887 886 885 884 883 882 882 881 879 878 877 876 874 873 871 869 867 866 864 862 860 858 856 854 852 850 848 846 844 842 840 837 835 833 831 829 826 824 822 820 818 816 814 812
864 866 867 869 870 872 873 875 876 877 877 878 880 880 881 882 883 884 885 886 886 887 888 889 889 890 890 890 890 890 890 890 890 890 889 889 889 888 888 888 888 887 886 885 885 884 883 882 881 880 879 878 876 875 873 871 870 868 866 864 863 861 859 857 855 853 851 849 847 845 843 841 838 836 834 832 830 827 825 823 821 819 816 814 812
862 864 865 867 869 870 872 873 874 875 876 877 878 879 880 881 882 883 884 885 886 886 887 888 889 889 890 890 890 890 890 890 890 890 889 889 889 888 888 888 887 886 886 885 885 884 883 882 881 880 879 878 877 875 874 872 870 868 866 865 864 862 860 858 856 853 851 849 847 845 843 841 839 837 835 833 831 828 826 824 822 819 817 815 813
860 862 864 865 867 868 870 871 873 874 875 876 877 878 879 880 881 882 883 884 884 886 887 887 888 889 889 890 890 890 890 890 890 890 890 889 889 888 888 888 887 886 886 885 885 884 883 882 881 881 879 878 877 876 874 872 871 869 867 866 864 862 860 858 856 854 852 850 848 846 844 842 840 838 836 834 831 829 827 825 823 821 819 817 814